PDT,Max TemperatureF,Mean TemperatureF,Min TemperatureF,Max Dew PointF,MeanDew PointF,Min DewpointF,Max Humidity, Mean Humidity, Min Humidity, Max Sea Level PressureIn, Mean Sea Level PressureIn, Min Sea Level PressureIn, Max VisibilityMiles, Mean VisibilityMiles, Min VisibilityMiles, Max Wind SpeedMPH, Mean Wind SpeedMPH, Max Gust SpeedMPH,PrecipitationIn, CloudCover, Events, WindDirDegrees
2012-10-1,69,55,44,57,47,42,100,84,60,30.37,30.24,30.10,10,9,2,12,2,,0.00,0,,197
2012-10-2,61,50,39,49,43,34,100,77,36,30.34,30.23,30.17,10,9,1,13,2,18,0.00,3,,33
2012-10-3,63,56,50,34,31,25,52,39,30,30.43,30.37,30.31,10,10,8,14,8,24,0.00,0,,354
2012-10-4,62,56,46,43,38,33,71,56,34,30.34,30.30,30.27,10,10,10,13,7,23,0.00,0,,339
2012-10-5,66,54,42,44,38,34,85,55,32,30.33,30.28,30.24,10,10,10,9,4,,0.00,0,,348
2012-10-6,69,55,41,44,39,35,89,60,32,30.27,30.22,30.14,10,10,10,7,1,,0.00,0,,53
2012-10-7,70,54,43,47,42,37,89,69,43,30.14,30.04,29.94,10,10,10,6,1,,0.00,0,,63
2012-10-8,66,54,41,48,44,40,97,79,47,30.02,29.97,29.94,10,9,4,6,1,,0.00,0,,136
2012-10-9,57,50,44,49,47,44,100,88,67,30.14,30.08,30.03,10,8,4,8,4,,0.00,3,,154
2012-10-10,51,46,42,49,47,42,100,95,86,30.06,30.03,30.00,8,3,0,4,0,,0.00,7,Fog,45
2012-10-11,51,50,48,47,45,44,93,87,82,30.02,29.92,29.81,10,8,4,6,2,,0.00,8,,156
2012-10-12,55,52,48,52,49,46,100,92,80,29.96,29.87,29.81,10,8,2,12,6,,0.03,7,Rain,130
2012-10-13,59,54,51,55,53,50,100,94,87,30.08,30.04,29.96,10,8,2,8,5,,0.17,8,Rain,118
2012-10-14,57,54,51,55,53,50,100,94,87,30.01,29.88,29.82,10,8,2,22,5,31,0.21,8,Rain,154
2012-10-15,59,50,44,55,50,43,100,95,80,29.94,29.75,29.48,10,5,0,17,3,24,0.18,6,Fog-Rain,129
2012-10-16,57,52,48,48,44,39,83,73,58,30.27,29.96,29.56,10,10,10,16,9,26,0.00,1,,225
2012-10-17,55,48,42,46,43,40,96,83,60,30.33,30.29,30.23,10,10,8,7,2,,0.00,3,,179
2012-10-18,55,50,45,49,46,41,100,89,57,30.22,29.94,29.75,10,7,2,13,2,21,0.29,7,Rain,95
2012-10-19,55,50,45,52,45,39,94,79,59,29.80,29.75,29.71,10,10,7,12,8,24,0.01,6,Rain,204
2012-10-20,52,44,39,42,39,34,97,82,61,29.86,29.84,29.79,10,9,1,12,6,20,0.07,5,Rain,199
2012-10-21,52,46,39,41,39,37,96,79,61,29.88,29.84,29.81,10,10,10,13,7,,0.00,6,Rain,111
2012-10-22,50,43,36,43,38,32,93,83,52,29.79,29.64,29.59,10,9,6,15,2,26,0.01,7,Rain,28
2012-10-23,50,46,41,43,41,39,97,84,71,29.87,29.78,29.66,10,10,6,14,6,22,0.00,7,Rain,94
2012-10-24,48,46,43,43,40,38,93,80,71,30.18,30.00,29.87,10,10,7,13,5,18,0.02,8,Rain,43
2012-10-25,52,46,42,45,42,40,100,86,66,30.43,30.34,30.21,10,10,2,6,1,,0.00,5,Rain,62
2012-10-26,48,45,44,46,42,38,97,86,71,30.31,30.13,30.02,10,9,4,9,4,18,0.03,8,Rain,55
2012-10-27,53,48,46,50,47,45,100,95,89,30.02,29.92,29.74,10,6,2,13,3,21,0.25,8,Rain,92
2012-10-28,57,52,48,52,48,46,100,89,75,29.94,29.86,29.77,10,10,6,12,5,24,0.00,5,Rain,190
2012-10-29,61,55,50,52,50,48,97,91,72,29.97,29.80,29.69,10,7,2,9,4,,0.22,8,Rain,38
2012-10-30,57,52,50,55,52,48,100,96,93,29.93,29.83,29.72,10,6,1,10,2,18,0.21,8,Rain,40
2012-10-31,57,54,50,54,52,48,100,96,87,29.75,29.67,29.57,10,7,2,13,3,21,0.05,8,Rain,112